15min,AgWx,beryljct,423,17SEP2020:00:00:00,52.9,12.85,59.8,59.1,53.0,59.1,48.8,37,49,27,0.460,27.1,30.7,24.4,6.555,4.8,177,8.1,8.2,0.00025,0.00037,.,63.2,12,0,.,.,4.30,0.00,0.00
15min,AgWx,beryljct,423,17SEP2020:00:15:00,54.2,12.84,64.5,64.3,61.6,64.4,59.0,25,28,22,0.447,25.1,26.4,24.2,7.081,6.5,172,5.1,7.5,0.00057,0.00078,.,63.2,12,0,.,.,4.29,0.00,0.00
15min,AgWx,beryljct,423,17SEP2020:00:30:00,55.5,12.84,52.0,51.8,56.0,64.5,50.6,36,46,22,0.488,28.6,33.7,24.5,6.533,5.1,282,57,7.3,0.00033,0.00047,.,63.2,12,0,.,.,4.29,0.00,0.00
15min,AgWx,beryljct,423,17SEP2020:00:45:00,54.7,12.82,47.9,48.0,50.1,52.2,48.0,44,53,35,0.593,28.7,32.1,25.4,1.754,3.4,301,20,6.6,0.00009,0.00016,.,63.1,12,0,.,.,4.29,0.00,0.00
15min,AgWx,beryljct,423,17SEP2020:01:00:00,53.4,12.83,51.2,51.4,49.8,51.5,47.8,41,53,31,0.429,26.9,31.6,21.5,1.513,2.5,322,12,3.7,0.00000,0.00004,.,63.1,12,0,.,.,4.30,0.00,0.00
15min,AgWx,beryljct,423,17SEP2020:01:15:00,52.4,12.82,49.5,50.2,50.1,51.4,49.3,38,46,34,0.493,25.7,29.8,23.5,1.052,1.2,359,3.9,2.0,-0.00016,-0.00021,.,63.0,12,0,.,.,4.29,0.00,0.00
15min,AgWx,beryljct,423,17SEP2020:01:30:00,51.7,12.82,51.0,49.9,49.8,50.4,48.8,39,46,34,0.475,25.6,29.4,23.3,3.639,2.6,323,13,3.7,0.00002,0.00006,.,63.0,12,0,.,.,4.29,0.00,0.00
15min,AgWx,beryljct,423,17SEP2020:01:45:00,51.0,12.81,44.5,46.7,48.6,51.1,46.4,47,60,36,0.603,28.9,34.1,24.8,0.658,2.0,2.4,62,4.0,-0.00007,-0.00006,.,62.9,12,0,.,.,4.29,0.00,0.00
15min,AgWx,beryljct,423,17SEP2020:02:00:00,50.0,12.79,48.5,48.0,46.5,48.0,45.4,54,64,40,0.453,30.7,34.1,24.6,3.442,2.1,341,20,3.5,-0.00008,-0.00008,.,62.9,12,0,.,.,4.29,0.00,0.00
15min,AgWx,beryljct,423,17SEP2020:02:15:00,49.2,12.79,48.7,48.2,47.3,48.3,46.1,47,58,40,0.506,27.9,32.3,24.9,3.223,3.1,310,9.7,3.8,0.00004,0.00009,.,62.8,12,0,.,.,4.29,0.00,0.00
15min,AgWx,beryljct,423,17SEP2020:02:30:00,48.7,12.78,46.5,47.3,47.4,48.2,46.7,46,48,42,0.476,27.7,28.7,25.7,3.113,2.9,314,5.5,3.6,0.00003,0.00007,.,62.7,12,0,.,.,4.30,0.00,0.00
15min,AgWx,beryljct,423,17SEP2020:02:45:00,48.2,12.77,48.9,47.4,46.7,47.4,46.2,42,49,35,0.398,24.6,28.7,20.9,2.74,2.9,330,6.9,3.8,0.00005,0.00010,.,62.7,12,0,.,.,4.30,0.00,0.00
15min,AgWx,beryljct,423,17SEP2020:03:00:00,48.0,12.76,45.5,45.7,47.6,50.2,45.2,41,58,32,0.522,24.4,31.7,20.5,0.548,1.6,299,52,2.7,-0.00010,-0.00011,.,62.6,12,0,.,.,4.29,0.00,0.00
15min,AgWx,beryljct,423,17SEP2020:03:15:00,47.5,12.76,41.3,42.9,45.5,46.4,42.9,50,64,45,0.602,28.0,31.6,26.2,0.899,2.2,153,18,3.4,-0.00005,-0.00005,.,62.6,13,0,.,.,4.30,0.00,0.00
15min,AgWx,beryljct,423,17SEP2020:03:30:00,46.9,12.74,45.0,45.0,43.9,45.3,42.3,53,67,43,0.466,28.0,32.1,24.1,4.932,3.6,164,15,6.4,0.00004,0.00008,.,62.5,12,0,.,.,4.30,0.00,0.00
15min,AgWx,beryljct,423,17SEP2020:03:45:00,46.3,12.73,41.5,42.0,43.8,45.2,42.0,54,62,44,0.562,28.1,30.1,24.6,4.143,2.0,171,39,5.1,-0.00008,-0.00008,.,62.4,12,0,.,.,4.30,0.00,0.00
15min,AgWx,beryljct,423,17SEP2020:04:00:00,45.7,12.72,41.4,41.7,42.2,43.2,41.4,58,65,53,0.552,28.6,30.6,26.9,4.253,3.7,138,6.8,4.7,0.00003,0.00006,.,62.3,13,0,.,.,4.30,0.00,0.00
15min,AgWx,beryljct,423,17SEP2020:04:15:00,45.2,12.72,41.2,42.6,43.5,45.1,41.0,49,64,41,0.507,25.4,30.0,22.3,1.929,2.5,163,13,4.3,-0.00002,0.00001,.,62.3,12,0,.,.,4.30,0.00,0.00
15min,AgWx,beryljct,423,17SEP2020:04:30:00,44.5,12.71,39.5,39.5,40.3,42.5,39.2,62,68,56,0.540,28.1,29.4,26.3,3.069,4.0,130,15,5.8,0.00002,0.00005,.,62.2,13,0,.,.,4.30,0.00,0.00
15min,AgWx,beryljct,423,17SEP2020:04:45:00,43.7,12.71,39.3,39.1,39.1,39.4,38.4,65,70,61,0.522,28.2,29.8,26.8,0,1.6,183,16,3.3,-0.00013,-0.00016,.,62.1,12,0,.,.,4.30,0.00,0.00
15min,AgWx,beryljct,423,17SEP2020:05:00:00,42.9,12.7,39.5,39.3,39.3,39.7,39.0,62,68,53,0.504,27.2,29.5,23.8,1.052,0.5,188,0.1,1.3,-0.00024,-0.00035,.,62.0,12,0,.,.,4.30,0.00,0.00
15min,AgWx,beryljct,423,17SEP2020:05:15:00,42.4,12.69,40.5,39.9,39.4,39.9,39.0,61,70,53,0.448,27.1,30.3,24.0,0,0.4,188,0.0,1.2,-0.00024,-0.00036,.,62.0,12,0,.,.,4.30,0.00,0.00
15min,AgWx,beryljct,423,17SEP2020:05:30:00,42.0,12.69,40.7,39.9,40.0,41.0,39.3,64,72,47,0.541,28.6,31.6,22.3,2.192,0.3,204,26,2.3,-0.00026,-0.00039,.,61.9,12,0,.,.,4.30,0.00,0.00
15min,AgWx,beryljct,423,17SEP2020:05:45:00,41.7,12.69,41.1,40.5,39.7,40.5,38.9,68,74,59,0.502,29.8,31.4,27.2,0.767,0.8,305,0.0,2.4,0.00006,0.00011,.,61.8,12,0,.,.,4.30,0.00,0.00
15min,AgWx,beryljct,423,17SEP2020:06:00:00,41.4,12.67,40.2,39.7,40.0,40.5,39.6,63,71,54,0.466,28.4,31.0,24.5,1.622,0.8,321,12,2.3,0.00007,0.00011,.,61.7,13,0,.,.,4.30,0.00,0.00
15min,AgWx,beryljct,423,17SEP2020:06:15:00,41.2,12.67,39.6,39.0,38.9,39.8,38.3,63,69,55,0.473,27.2,29.3,25.1,2.828,1.2,18,59,2.8,0.00011,0.00018,.,61.7,13,1,.,.,4.30,0.00,0.00
15min,AgWx,beryljct,423,17SEP2020:06:30:00,40.9,12.68,38.8,38.0,38.3,39.2,37.4,65,73,56,0.537,27.6,29.6,24.8,1.271,1.8,327,5.2,4.0,0.00017,0.00027,.,61.6,13,9,.,.,4.30,0.00,0.00
15min,AgWx,beryljct,423,17SEP2020:06:45:00,40.8,12.7,40.6,39.7,38.7,39.7,37.7,65,75,52,0.502,27.6,30.8,23.6,2.565,2.4,295,21,3.4,0.00031,0.00044,.,61.5,12,32,.,.,4.30,0.00,0.00
15min,AgWx,beryljct,423,17SEP2020:07:00:00,41.2,12.73,41.6,41.9,41.3,42.1,39.7,55,60,50,0.492,26.3,28.4,24.1,2.236,3.0,312,9.6,4.1,0.00055,0.00077,.,61.4,12,60,.,.,4.30,0.00,0.00
15min,AgWx,beryljct,423,17SEP2020:07:15:00,42.1,12.8,42.6,43.3,42.5,43.9,41.5,56,61,46,0.541,27.7,29.9,24.4,2.74,2.6,21,47,4.0,0.00065,0.00085,.,61.3,12,89,.,.,4.30,0.00,0.00
15min,AgWx,beryljct,423,17SEP2020:07:30:00,43.4,12.9,44.5,43.6,42.6,43.7,42.1,74,82,59,0.606,34.8,37.0,29.8,2.85,2.3,132,40,4.3,0.00072,0.00085,.,61.3,13,137,.,.,4.30,0.00,0.00
15min,AgWx,beryljct,423,17SEP2020:07:45:00,45.0,13.09,45.3,44.8,44.3,44.9,43.7,64,68,56,0.668,32.9,34.9,29.5,2.433,2.6,151,22,5.0,0.00097,0.00117,.,61.2,12,180,.,.,4.30,0.00,0.00
15min,AgWx,beryljct,423,17SEP2020:08:00:00,46.9,13.36,47.9,48.3,46.6,48.3,44.9,57,67,45,0.592,32.2,35.1,27.5,0,0.6,164,42,2.3,0.00114,0.00126,.,61.1,12,225,.,.,4.29,0.00,0.00
15min,AgWx,beryljct,423,17SEP2020:08:15:00,49.4,13.69,50.8,50.4,48.8,50.4,47.9,57,61,50,0.670,34.0,36.7,30.5,2.543,1.8,162,18,2.7,0.00148,0.00171,.,61.0,12,277,.,.,4.29,0.00,0.00
15min,AgWx,beryljct,423,17SEP2020:08:30:00,52.2,14.42,53.9,53.6,52.1,53.6,50.4,55,59,49,0.681,36.5,38.9,34.3,3.661,2.4,134,12,4.2,0.00186,0.00216,.,60.9,12,331,.,.,4.29,0.00,0.00
15min,AgWx,beryljct,423,17SEP2020:08:45:00,55.4,14.35,57.6,57.6,56.0,58.1,53.6,45,55,36,0.692,34.7,38.4,31.2,0,0.7,136,2.0,3.5,0.00216,0.00238,.,60.8,12,383,.,.,4.29,0.00,0.00
15min,AgWx,beryljct,423,17SEP2020:09:00:00,58.9,14.31,61.1,60.3,58.5,60.3,57.5,42,51,34,0.598,35.1,40.0,31.0,1.447,1.1,27,37,2.5,0.00256,0.00285,.,60.8,12,438,.,.,4.28,0.00,0.00
15min,AgWx,beryljct,423,17SEP2020:09:15:00,62.5,14.21,64.7,64.8,63.1,64.9,60.3,30,42,24,0.527,30.6,39.7,26.3,1.841,1.9,349,15,3.5,0.00308,0.00357,.,60.7,12,484,.,.,4.28,0.00,0.00
15min,AgWx,beryljct,423,17SEP2020:09:30:00,66.2,14.19,65.8,66.0,65.3,66.2,64.8,31,41,23,0.655,33.9,40.8,26.2,2.017,2.3,31,13,3.7,0.00350,0.00406,.,60.6,12,536,.,.,4.27,0.00,0.00
15min,AgWx,beryljct,423,17SEP2020:09:45:00,69.2,14.14,67.0,66.7,66.6,67.2,66.0,33,46,24,0.880,36.4,45.4,29.3,2.872,1.7,68,11,2.9,0.00365,0.00415,.,60.5,12,563,.,.,4.27,0.00,0.00
15min,AgWx,beryljct,423,17SEP2020:10:00:00,71.7,14.05,68.2,68.5,67.8,68.7,66.7,35,45,27,1.022,38.9,45.7,32.5,1.228,1.5,90,11,2.8,0.00390,0.00437,.,60.4,12,600,.,.,4.27,0.00,0.00
15min,AgWx,beryljct,423,17SEP2020:10:15:00,73.8,14.02,69.2,69.2,68.7,69.3,68.3,37,44,31,0.905,41.5,46.6,36.7,2.784,1.9,111,10,3.1,0.00422,0.00476,.,60.4,12,640,.,.,4.26,0.00,0.00
15min,AgWx,beryljct,423,17SEP2020:10:30:00,75.4,14,70.7,71.0,70.5,73.0,69.2,37,44,29,0.985,42.9,46.8,38.2,2.039,1.3,114,9.9,2.8,0.00446,0.00495,.,60.3,12,674,.,.,4.26,0.00,0.00
15min,AgWx,beryljct,423,17SEP2020:10:45:00,77.2,13.64,74.3,74.1,72.3,74.1,71.0,40,47,32,1.146,46.9,52.0,40.7,0,1.5,124,9.6,3.2,0.00476,0.00529,.,60.3,12,709,.,.,4.26,0.00,0.00
15min,AgWx,beryljct,423,17SEP2020:11:00:00,79.0,13.54,75.1,75.6,74.7,75.6,73.7,33,47,23,0.935,43.2,52.7,35.0,1.644,1.1,79,9.9,2.3,0.00503,0.00553,.,60.2,12,744,.,.,4.26,0.00,0.00
15min,AgWx,beryljct,423,17SEP2020:11:15:00,81.3,13.5,77.8,77.0,76.6,78.0,75.4,31,39,20,0.856,43.2,50.4,33.8,1.666,0.9,77,5.5,2.1,0.00526,0.00577,.,60.2,12,772,.,.,4.25,0.00,0.00
15min,AgWx,beryljct,423,17SEP2020:11:30:00,83.3,13.44,79.3,79.3,78.4,79.7,77.1,30,45,19,0.875,44.2,54.8,33.7,1.841,1.4,62,23,2.5,0.00551,0.00611,.,60.2,12,789,.,.,4.25,0.00,0.00
15min,AgWx,beryljct,423,17SEP2020:11:45:00,85.4,13.51,79.8,80.5,80.4,81.4,79.4,26,39,16,1.103,42.4,53.2,30.8,2.346,1.7,75,21,2.9,0.00569,0.00639,.,60.1,12,801,.,.,4.25,0.00,0.00
15min,AgWx,beryljct,423,17SEP2020:12:00:00,86.9,13.4,82.3,82.2,81.5,82.9,80.3,26,41,14,0.580,42.5,54.4,28.5,2.499,2.2,76,18,4.6,0.00590,0.00670,.,60.1,12,815,.,.,4.25,0.00,0.00
15min,AgWx,beryljct,423,17SEP2020:12:15:00,88.1,13.39,81.7,83.9,83.0,83.9,82.1,22,33,15,0.947,39.5,51.1,30.8,4.494,1.3,59,34,4.5,0.00582,0.00647,.,60.1,12,822,.,.,4.25,0.00,0.00
15min,AgWx,beryljct,423,17SEP2020:12:30:00,89.0,13.4,82.5,83.1,83.3,85.3,81.9,21,31,10,0.767,38.1,49.2,22.1,6.489,5.0,111,61,10.3,0.00649,0.00787,.,60.1,12,827,.,.,4.25,0.00,0.00
15min,AgWx,beryljct,423,17SEP2020:12:45:00,88.3,13.38,79.6,81.4,82.0,83.3,81.0,24,34,11,1.093,41.4,51.3,23.8,7.804,7.2,112,35,14.1,0.00668,0.00837,.,60.2,12,824,.,.,4.25,0.00,0.00
15min,AgWx,beryljct,423,17SEP2020:13:00:00,87.3,13.39,83.9,83.2,82.3,84.2,80.1,21,31,13,0.641,38.0,46.8,28.0,8.75,9.4,158,16,15.4,0.00700,0.00909,.,60.2,12,817,.,.,4.25,0.01,0.00
15min,AgWx,beryljct,423,17SEP2020:13:15:00,86.9,13.39,84.9,85.3,83.4,85.3,81.7,17,24,12,0.569,34.1,42.2,27.1,10.08,12.3,162,16,17.4,0.00748,0.01011,.,60.2,12,806,.,.,4.25,0.00,0.00
15min,AgWx,beryljct,423,17SEP2020:13:30:00,86.9,13.48,85.4,85.1,83.7,85.3,82.3,16,22,10,0.601,32.5,40.5,22.4,14.69,11.1,163,18,18.5,0.00729,0.00978,.,60.3,12,796,.,.,4.25,0.00,0.00
15min,AgWx,beryljct,423,17SEP2020:13:45:00,87.3,13.37,83.2,83.9,84.5,85.8,82.5,16,23,12,0.770,33.2,41.2,25.8,10.46,9.7,172,19,14.2,0.00706,0.00935,.,60.4,12,784,.,.,4.25,0.00,0.00
15min,AgWx,beryljct,423,17SEP2020:14:00:00,88.0,13.37,85.7,84.8,84.8,86.1,83.1,16,24,11,0.587,33.7,42.1,23.5,8.81,8.1,187,25,14.3,0.00670,0.00871,.,60.4,12,767,.,.,4.25,0.00,0.00
15min,AgWx,beryljct,423,17SEP2020:14:15:00,88.7,13.31,86.1,86.0,85.4,86.5,84.2,15,23,10,0.721,32.1,42.8,24.3,11.88,6.1,188,23,11.9,0.00626,0.00791,.,60.5,12,752,.,.,4.25,0.00,0.00
15min,AgWx,beryljct,423,17SEP2020:14:30:00,89.4,13.34,86.8,85.6,85.4,86.6,84.1,15,22,8.8,0.667,31.6,41.7,20.3,7.037,6.0,202,36,14.1,0.00601,0.00765,.,60.6,12,717,.,.,4.25,0.00,0.00
15min,AgWx,beryljct,423,17SEP2020:14:45:00,90.0,13.38,83.8,84.0,85.3,86.7,84.0,18,31,9.9,1.000,36.2,52.1,23.1,3.179,5.0,200,45,20.3,0.00542,0.00680,.,60.7,12,667,.,.,4.25,0.00,0.00
15min,AgWx,beryljct,423,17SEP2020:15:00:00,90.1,13.37,83.7,84.3,84.7,85.6,83.8,17,24,11,0.578,34.3,43.4,25.0,5.656,6.1,188,27,12.2,0.00526,0.00683,.,60.8,12,619,.,.,4.25,0.00,0.00
15min,AgWx,beryljct,423,17SEP2020:15:15:00,89.7,13.32,84.8,84.9,84.4,86.1,82.6,16,22,9.5,0.698,33.5,41.1,21.1,12.36,5.3,237,38,12.4,0.00488,0.00626,.,60.9,12,593,.,.,4.25,0.00,0.00
15min,AgWx,beryljct,423,17SEP2020:15:30:00,89.6,13.3,84.5,84.8,84.6,85.3,83.2,16,28,10,0.597,33.1,47.4,22.5,11.71,5.5,170,45,14.8,0.00454,0.00597,.,61.0,12,537,.,.,4.25,0.00,0.00
15min,AgWx,beryljct,423,17SEP2020:15:45:00,89.0,13.31,84.7,83.5,83.5,84.8,81.9,16,22,12,0.466,33.0,39.4,25.4,12.85,9.1,193,18,13.3,0.00503,0.00707,.,61.1,12,513,.,.,4.25,0.00,0.00
15min,AgWx,beryljct,423,17SEP2020:16:00:00,88.0,13.37,82.5,83.1,83.4,85.0,81.6,15,21,12,0.682,31.4,38.5,25.1,6.642,9.2,186,19,15.1,0.00462,0.00667,.,61.2,12,444,.,.,4.25,0.00,0.00
15min,AgWx,beryljct,423,17SEP2020:16:15:00,87.1,13.35,80.2,82.1,83.0,84.3,81.6,15,19,11,0.645,30.7,36.2,24.1,6.686,8.6,182,21,14.1,0.00401,0.00592,.,61.4,12,380,.,.,4.26,0.00,0.00
15min,AgWx,beryljct,423,17SEP2020:16:30:00,85.9,13.39,82.3,82.1,80.7,82.1,79.8,19,25,13,0.538,34.9,40.9,26.0,7.322,6.9,224,21,11.2,0.00318,0.00465,.,61.5,12,329,.,.,4.26,0.00,0.00
15min,AgWx,beryljct,423,17SEP2020:16:45:00,84.8,13.46,81.1,80.8,81.7,83.9,79.8,17,22,10,0.629,32.0,37.8,22.2,4.845,7.4,200,21,12.5,0.00304,0.00465,.,61.6,12,284,.,.,4.26,0.00,0.00
15min,AgWx,beryljct,423,17SEP2020:17:00:00,83.5,13.46,79.1,79.2,79.5,81.5,77.0,19,26,15,0.652,33.8,39.9,27.5,6.862,7.6,226,12,13.0,0.00255,0.00407,.,61.7,12,221,.,.,4.26,0.00,0.00
15min,AgWx,beryljct,423,17SEP2020:17:15:00,82.1,13.48,79.4,79.5,79.0,80.4,77.3,19,24,15,0.593,33.4,37.7,27.4,6.949,6.6,228,19,9.1,0.00203,0.00337,.,61.8,12,177,.,.,4.26,0.00,0.00
15min,AgWx,beryljct,423,17SEP2020:17:30:00,80.9,13.48,76.2,77.3,79.1,80.7,77.3,18,21,15,0.657,31.7,34.6,28.5,6.248,7.6,218,16,9.9,0.00212,0.00364,.,62.0,12,155,.,.,4.26,0.00,0.00
15min,AgWx,beryljct,423,17SEP2020:17:45:00,79.6,13.23,76.7,77.4,77.0,77.5,76.0,21,23,19,0.621,33.7,36.1,31.8,5.261,5.8,230,7.4,7.7,0.00108,0.00152,.,62.1,12,125,.,.,4.26,0.00,0.00
15min,AgWx,beryljct,423,17SEP2020:18:00:00,78.1,13.17,74.7,76.0,77.0,78.1,76.0,20,22,16,0.666,32.3,35.8,27.3,6.226,5.2,228,6.3,7.0,0.00091,0.00131,.,62.2,12,90,.,.,4.26,0.00,0.00
15min,AgWx,beryljct,423,17SEP2020:18:15:00,76.6,13.11,74.7,74.7,75.5,76.3,74.7,20,21,18,0.590,31.1,33.7,29.3,6.73,6.6,227,4.7,8.2,0.00099,0.00138,.,62.3,12,60,.,.,4.27,0.00,0.00
15min,AgWx,beryljct,423,17SEP2020:18:30:00,75.2,13.05,73.0,73.9,74.6,75.7,73.6,20,22,18,0.598,30.4,33.1,28.3,6.226,6.3,233,4.8,8.1,0.00085,0.00121,.,62.4,12,28,.,.,4.27,0.00,0.00
15min,AgWx,beryljct,423,17SEP2020:18:45:00,73.8,13.03,73.4,73.7,73.9,74.5,73.6,19,20,17,0.544,29.2,30.7,27.3,6.883,6.9,232,4.6,9.5,0.00086,0.00121,.,62.5,12,4,.,.,4.27,0.00,0.00
15min,AgWx,beryljct,423,17SEP2020:19:00:00,72.6,13.01,72.2,72.1,73.1,74.0,72.0,20,21,18,0.542,29.2,30.8,28.3,6.489,6.5,231,3.8,7.2,0.00078,0.00110,.,62.6,12,1,.,.,4.27,0.00,0.00
15min,AgWx,beryljct,423,17SEP2020:19:15:00,71.5,13,71.7,71.6,71.9,72.7,71.3,21,22,19,0.556,29.4,30.7,27.5,6.248,6.2,229,4.6,8.5,0.00071,0.00102,.,62.7,12,0,.,.,4.27,0.00,0.00
15min,AgWx,beryljct,423,17SEP2020:19:30:00,70.8,13,72.8,73.1,72.3,73.1,71.5,20,21,19,0.522,28.7,29.9,27.6,6.905,6.9,229,4.4,8.7,0.00081,0.00114,.,62.8,12,0,.,.,4.27,0.00,0.00
15min,AgWx,beryljct,423,17SEP2020:19:45:00,70.6,12.96,70.2,71.6,72.5,73.2,71.6,20,21,18,0.544,28.7,29.6,27.7,5.634,6.7,225,3.9,8.8,0.00080,0.00113,.,62.9,12,0,.,.,4.27,0.00,0.00
15min,AgWx,beryljct,423,17SEP2020:20:00:00,70.0,12.97,70.8,70.7,70.9,71.6,70.3,21,23,20,0.533,29.4,30.4,28.5,5.941,6.1,227,3.4,7.1,0.00067,0.00097,.,62.9,12,0,.,.,4.27,0.00,0.00
15min,AgWx,beryljct,423,17SEP2020:20:15:00,69.3,12.96,71.1,71.0,70.6,71.1,70.0,21,22,20,0.530,28.8,30.3,27.7,5.722,6.1,221,4.2,7.3,0.00068,0.00098,.,63.0,12,0,.,.,4.27,0.00,0.00
15min,AgWx,beryljct,423,17SEP2020:20:30:00,68.0,12.96,61.5,62.8,64.6,71.0,60.3,25,32,20,0.474,27.8,31.4,23.6,5.349,5.4,168,23,7.2,0.00051,0.00073,.,63.0,12,0,.,.,4.27,0.00,0.00
15min,AgWx,beryljct,423,17SEP2020:20:45:00,66.1,12.95,64.5,64.8,64.3,65.4,62.3,22,25,20,0.441,24.3,26.3,22.7,4.341,5.0,170,5.9,6.6,0.00046,0.00068,.,63.1,12,0,.,.,4.28,0.00,0.00
15min,AgWx,beryljct,423,17SEP2020:21:00:00,64.6,12.95,62.2,63.0,64.4,65.3,63.0,22,25,20,0.487,24.7,26.6,22.9,3.464,4.6,178,8.2,5.4,0.00041,0.00062,.,63.1,12,0,.,.,4.28,0.00,0.00
15min,AgWx,beryljct,423,17SEP2020:21:15:00,63.3,12.94,60.6,62.9,62.4,64.6,59.3,26,35,22,0.469,27.1,31.7,24.4,6.27,4.8,167,10,6.9,0.00039,0.00058,.,63.2,12,0,.,.,4.28,0.00,0.00
15min,AgWx,beryljct,423,17SEP2020:21:30:00,62.5,12.93,62.3,62.1,62.0,62.9,61.4,24,26,21,0.402,24.4,26.7,21.9,6.379,6.3,165,5.7,8.1,0.00057,0.00078,.,63.2,12,0,.,.,4.28,0.00,0.00
15min,AgWx,beryljct,423,17SEP2020:21:45:00,62.1,12.93,59.8,60.2,61.5,62.2,60.2,23,24,21,0.421,22.8,23.8,21.9,6.16,6.5,170,6.2,7.8,0.00058,0.00080,.,63.2,12,0,.,.,4.28,0.00,0.00
15min,AgWx,beryljct,423,17SEP2020:22:00:00,61.3,12.92,58.5,59.8,59.4,60.8,57.2,26,32,23,0.505,24.4,27.8,22.1,1.929,2.4,233,30,6.4,0.00006,0.00013,.,63.2,12,0,.,.,4.28,0.00,0.00
15min,AgWx,beryljct,423,17SEP2020:22:15:00,60.3,12.91,55.1,57.4,57.3,59.6,56.5,31,34,27,0.481,26.6,30.1,23.8,2.433,2.7,296,6.5,4.4,0.00007,0.00015,.,63.2,12,0,.,.,4.28,0.00,0.00
15min,AgWx,beryljct,423,17SEP2020:22:30:00,59.0,12.91,60.3,59.7,56.3,59.7,54.2,31,39,23,0.402,25.6,30.3,21.8,0.965,1.2,133,62,2.9,-0.00016,-0.00020,.,63.2,12,0,.,.,4.28,0.00,0.00
15min,AgWx,beryljct,423,17SEP2020:22:45:00,58.3,12.9,56.4,55.9,57.8,59.8,55.7,27,32,22,0.439,23.9,27.5,21.0,2.916,2.6,210,16,3.6,0.00008,0.00017,.,63.2,12,0,.,.,4.28,0.00,0.00
15min,AgWx,beryljct,423,17SEP2020:23:00:00,57.7,12.9,49.8,55.7,56.4,57.5,54.6,30,40,26,0.496,24.8,31.2,22.9,2.368,1.9,205,56,3.2,-0.00005,-0.00002,.,63.2,12,0,.,.,4.28,0.00,0.00
15min,AgWx,beryljct,423,17SEP2020:23:15:00,56.7,12.89,52.1,52.0,53.6,55.3,51.6,38,48,30,0.554,28.6,33.0,24.2,2.017,1.3,62,5.5,2.6,-0.00015,-0.00019,.,63.2,12,0,.,.,4.28,0.00,0.00
15min,AgWx,beryljct,423,17SEP2020:23:30:00,55.5,12.88,52.6,51.0,51.0,52.1,49.7,47,55,41,0.566,31.2,34.2,29.1,0.548,0.5,67,10,2.1,-0.00028,-0.00041,.,63.2,12,0,.,.,4.29,0.01,0.00
15min,AgWx,beryljct,423,17SEP2020:23:45:00,54.4,12.88,50.8,50.4,51.6,52.5,50.3,43,51,38,0.601,29.9,33.4,27.5,0,0.1,86,2.6,0.8,-0.00036,-0.00057,.,63.1,12,0,.,.,4.29,0.00,0.00
15min,AgWx,bigpiney,439,17SEP2020:00:00:00,41.9,12.63,38.2,37.4,35.9,37.4,35.0,69,71,67,0.509,26.8,27.6,25.3,8.57,6.9,215,5.9,8.6,0.00009,0.00012,49.8,49.1,45,0,0,0.0,8.27,0.00,0.00
15min,AgWx,bigpiney,439,17SEP2020:00:15:00,41.6,12.63,38.2,38.2,38.4,38.8,37.5,64,67,63,0.505,27.4,27.7,27.2,6.555,7.9,222,5.8,9.4,0.00015,0.00019,49.7,49.0,45,0,0,0.0,8.27,0.00,0.00
15min,AgWx,bigpiney,439,17SEP2020:00:30:00,41.7,12.61,37.8,37.9,37.5,38.3,37.1,66,67,64,0.491,27.3,27.7,26.7,4.384,5.2,228,10,6.9,0.00007,0.00011,49.7,49.0,45,0,0,0.0,8.27,0.00,0.00
15min,AgWx,bigpiney,439,17SEP2020:00:45:00,41.5,12.61,39.8,37.1,36.9,37.8,36.3,65,66,63,0.476,26.2,26.6,25.9,3.968,4.4,239,6.4,5.7,0.00006,0.00009,49.6,49.0,45,0,0,0.0,8.27,0.00,0.00
15min,AgWx,bigpiney,439,17SEP2020:01:00:00,41.2,12.6,40.4,40.7,39.7,41.2,37.4,55,63,50,0.438,24.8,26.0,23.8,1.666,1.7,286,28,4.6,-0.00004,-0.00004,49.5,49.0,45,0,0,0.0,8.27,0.00,0.00
15min,AgWx,bigpiney,439,17SEP2020:01:15:00,40.9,12.59,40.2,40.2,40.1,40.8,39.0,52,54,50,0.436,23.7,24.0,23.5,4.406,2.9,298,14,5.1,0.00005,0.00008,49.5,49.0,45,0,0,0.0,8.27,0.00,0.00
15min,AgWx,bigpiney,439,17SEP2020:01:30:00,40.7,12.59,41.3,40.4,40.6,41.2,40.2,52,53,50,0.439,24.4,25.1,23.6,1.447,2.6,303,23,4.3,0.00003,0.00006,49.4,49.0,45,0,0,0.0,8.27,0.00,0.00
15min,AgWx,bigpiney,439,17SEP2020:01:45:00,40.4,12.57,42.5,41.8,38.7,41.8,35.7,56,63,49,0.437,24.1,24.9,23.0,3.069,4.6,229,17,6.5,0.00011,0.00016,49.4,49.0,45,0,0,0.0,8.27,0.00,0.00
15min,AgWx,bigpiney,439,17SEP2020:02:00:00,39.7,12.56,37.2,40.4,40.6,42.5,36.8,51,58,47,0.426,23.9,24.9,23.0,5.02,3.7,246,11,5.2,0.00010,0.00015,49.3,49.0,45,0,0,0.0,8.27,0.00,0.00
15min,AgWx,bigpiney,439,17SEP2020:02:15:00,38.9,12.56,36.7,36.7,37.1,40.5,34.7,59,66,51,0.453,24.1,25.0,23.0,6.007,4.7,224,6.9,6.2,0.00009,0.00014,49.2,49.1,45,0,0,0.0,8.27,0.00,0.00
15min,AgWx,bigpiney,439,17SEP2020:02:30:00,38.1,12.55,32.0,31.7,32.8,36.7,31.5,71,77,61,0.464,24.5,25.3,23.5,5.108,5.8,206,3.0,6.5,0.00006,0.00008,49.2,49.0,45,0,0,0.0,8.27,0.00,0.00
15min,AgWx,bigpiney,439,17SEP2020:02:45:00,37.4,12.54,32.5,31.5,31.6,32.0,31.4,78,79,77,0.475,25.5,25.8,25.2,5.13,5.1,208,3.0,5.7,0.00001,0.00002,49.1,49.0,45,0,0,0.0,8.27,0.00,0.00
15min,AgWx,bigpiney,439,17SEP2020:03:00:00,36.9,12.52,34.3,33.6,32.9,35.2,29.8,71,81,63,0.427,24.5,26.0,23.3,0,2.1,245,19,5.0,-0.00005,-0.00005,49.0,49.0,45,0,0,0.0,8.27,0.00,0.00
15min,AgWx,bigpiney,439,17SEP2020:03:15:00,36.6,12.52,33.8,33.6,33.8,34.4,33.4,66,67,65,0.434,23.6,23.9,23.2,1.447,0.6,261,30,1.6,-0.00014,-0.00019,48.9,49.0,45,0,0,0.0,8.27,0.00,0.00
15min,AgWx,bigpiney,439,17SEP2020:03:30:00,36.4,12.5,36.7,36.4,35.3,36.4,33.5,63,67,60,0.436,24.0,24.2,23.5,2.609,2.1,323,10,3.0,-0.00003,-0.00003,48.9,49.0,45,0,0,0.0,8.27,0.00,0.00
15min,AgWx,bigpiney,439,17SEP2020:03:45:00,36.4,12.49,35.5,37.0,37.4,37.8,36.4,57,60,55,0.414,23.5,23.9,22.6,1.556,2.6,343,7.3,3.1,0.00001,0.00003,48.8,48.9,45,0,0,0.0,8.27,0.00,0.00
15min,AgWx,bigpiney,439,17SEP2020:04:00:00,36.4,12.49,37.3,37.3,36.3,37.3,35.5,58,59,56,0.423,22.8,23.1,22.3,2.609,1.8,318,14,2.7,-0.00004,-0.00004,48.7,49.0,45,0,0,0.0,8.27,0.00,0.00
15min,AgWx,bigpiney,439,17SEP2020:04:15:00,36.3,12.48,37.4,36.7,36.9,37.5,36.6,57,58,56,0.426,23.0,23.3,22.7,2.368,1.8,254,19,2.7,-0.00004,-0.00004,48.7,49.0,45,0,0,0.0,8.27,0.00,0.00
15min,AgWx,bigpiney,439,17SEP2020:04:30:00,36.3,12.46,39.0,38.6,37.6,38.6,36.8,57,58,56,0.440,23.7,24.1,23.3,1.951,2.1,236,7.9,3.0,-0.00002,-0.00001,48.6,48.9,45,0,0,0.0,8.27,0.00,0.00
15min,AgWx,bigpiney,439,17SEP2020:04:45:00,36.2,12.45,39.9,39.7,39.2,39.8,38.6,55,55,54,0.448,24.2,24.6,23.7,1.008,1.6,245,5.3,2.3,-0.00006,-0.00006,48.5,49.0,45,0,0,0.0,8.27,0.00,0.00
15min,AgWx,bigpiney,439,17SEP2020:05:00:00,35.9,12.44,39.6,39.0,38.7,39.9,37.1,56,59,54,0.455,24.4,24.9,23.4,2.916,1.9,248,17,3.0,-0.00003,-0.00003,48.5,48.9,45,0,0,0.0,8.27,0.00,0.00
15min,AgWx,bigpiney,439,17SEP2020:05:15:00,35.4,12.43,40.8,40.0,39.8,40.4,39.1,54,56,52,0.451,24.6,24.9,24.0,3.047,2.6,239,2.8,3.4,0.00002,0.00005,48.4,48.9,45,0,0,0.0,8.27,0.00,0.00
15min,AgWx,bigpiney,439,17SEP2020:05:30:00,34.9,12.41,30.6,32.6,39.1,40.4,32.6,54,63,52,0.392,24.0,24.8,20.8,4.209,1.7,244,15,4.2,-0.00004,-0.00004,48.3,48.9,45,0,0,0.0,8.27,0.00,0.00
15min,AgWx,bigpiney,439,17SEP2020:05:45:00,34.1,12.4,33.1,32.0,30.1,32.4,29.1,71,73,63,0.414,21.7,22.8,20.8,2.061,3.6,219,11,4.6,0.00000,0.00002,48.3,48.9,45,0,0,0.0,8.27,0.00,0.00
15min,AgWx,bigpiney,439,17SEP2020:06:00:00,33.3,12.39,30.8,31.4,33.3,35.4,29.4,65,71,61,0.394,22.7,23.6,20.1,0,1.0,357,51,2.7,-0.00010,-0.00014,48.2,48.9,45,1,0,0.0,8.27,0.00,0.00
15min,AgWx,bigpiney,439,17SEP2020:06:15:00,32.6,12.4,32.8,32.4,31.1,32.6,30.1,69,71,66,0.414,22.1,22.7,21.0,0,0.2,176,7.2,1.1,-0.00015,-0.00024,48.1,48.8,45,5,0,0.0,8.27,0.00,0.00
15min,AgWx,bigpiney,439,17SEP2020:06:30:00,32.4,12.41,34.4,33.7,32.9,33.7,32.4,66,67,65,0.423,22.8,23.1,22.6,1.973,0.6,243,1.6,2.2,-0.00023,-0.00022,48.1,48.8,45,19,0,0.0,8.27,0.00,0.00
15min,AgWx,bigpiney,439,17SEP2020:06:45:00,32.7,12.46,36.8,36.0,34.6,36.4,33.6,62,65,57,0.418,23.0,23.3,22.5,1.096,2.1,247,21,3.3,-0.00001,0.00009,48.0,48.8,45,42,0,0.0,8.27,0.00,0.00
15min,AgWx,bigpiney,439,17SEP2020:07:00:00,32.9,12.57,32.9,33.5,35.6,36.6,33.5,60,69,57,0.446,23.2,24.3,22.6,2.389,2.2,264,14,3.5,0.00017,0.00029,47.9,48.8,45,70,0,0.0,8.27,0.00,0.00
15min,AgWx,bigpiney,439,17SEP2020:07:15:00,33.5,12.78,38.4,37.2,35.0,37.2,33.3,67,72,62,0.462,25.1,26.3,24.4,1.666,1.8,242,11,3.0,0.00028,0.00038,47.8,48.8,45,102,0,0.0,8.27,0.00,0.00
15min,AgWx,bigpiney,439,17SEP2020:07:30:00,34.4,13.2,41.1,40.0,38.2,40.0,36.6,63,66,58,0.517,26.7,28.4,25.0,1.469,2.4,239,8.4,3.8,0.00051,0.00066,47.8,48.8,45,139,0,0.0,8.27,0.00,0.00
15min,AgWx,bigpiney,439,17SEP2020:07:45:00,36.2,13.5,43.8,43.5,42.1,43.5,40.1,60,66,55,0.568,29.2,32.2,26.3,0.614,1.2,242,8.0,2.7,0.00069,0.00080,47.7,48.7,45,183,0,0.0,8.27,0.00,0.00
15min,AgWx,bigpiney,439,17SEP2020:08:00:00,38.9,13.68,47.0,46.2,44.9,46.2,43.4,56,59,53,0.563,30.1,31.9,29.0,0,0.4,215,8.4,1.7,0.00090,0.00098,47.6,48.8,45,227,0,0.0,8.27,0.00,0.00
15min,AgWx,bigpiney,439,17SEP2020:08:15:00,42.1,14.22,49.4,49.0,47.7,49.1,46.3,51,54,47,0.562,30.3,32.0,29.1,0,0.0,99,0.0,0.0,0.00115,0.00122,47.6,48.7,45,272,0,0.0,8.27,0.00,0.00
15min,AgWx,bigpiney,439,17SEP2020:08:30:00,45.4,14.63,51.5,51.4,50.1,51.4,49.0,47,53,43,0.571,30.5,33.4,28.4,0,0.2,91,4.6,1.8,0.00143,0.00154,47.5,48.7,45,313,0,0.0,8.27,0.00,0.00
15min,AgWx,bigpiney,439,17SEP2020:08:45:00,48.6,14.58,52.9,52.3,51.9,52.5,51.4,45,48,42,0.585,31.3,33.0,29.2,0.11,1.3,90,25,2.8,0.00180,0.00205,47.4,48.7,45,356,0,0.0,8.27,0.00,0.00
15min,AgWx,bigpiney,439,17SEP2020:09:00:00,51.6,14.58,53.3,52.7,52.7,53.0,52.3,45,48,44,0.625,32.2,33.9,31.1,2.411,2.3,73,16,4.3,0.00214,0.00248,47.4,48.6,45,401,0,0.0,8.27,0.00,0.00